Time,TemperatureF,DewpointF,PressureIn,WindDirection,WindDirectionDegrees,WindSpeedMPH,WindSpeedGustMPH,Humidity,HourlyPrecipIn,Conditions,Clouds,dailyrainin,SoftwareType,DateUTC
2013-09-02 00:00:00,76.3,75.1,29.76,SE,127,0.0,0.0,96,0.00,,---,0.00,VWS V14.01,2013-09-02 04:00:00,
2013-09-02 00:01:00,76.3,75.1,29.76,SE,127,0.0,0.0,96,0.00,,---,0.00,VWS V14.01,2013-09-02 04:01:00,
2013-09-02 00:06:00,76.3,75.1,29.77,SE,127,0.0,0.0,96,0.00,,---,0.00,VWS V14.01,2013-09-02 04:06:00,
2013-09-02 00:11:00,76.4,75.2,29.77,SE,127,0.0,1.0,96,0.00,,---,0.00,VWS V14.01,2013-09-02 04:11:00,
2013-09-02 00:16:00,76.3,75.1,29.77,SE,127,0.0,1.0,96,0.00,,---,0.00,VWS V14.01,2013-09-02 04:16:00,
2013-09-02 00:21:00,76.3,75.1,29.77,SE,127,0.0,1.0,96,0.00,,---,0.00,VWS V14.01,2013-09-02 04:21:00,
2013-09-02 00:26:00,76.3,75.1,29.77,SE,127,0.0,1.0,96,0.00,,---,0.00,VWS V14.01,2013-09-02 04:26:00,
2013-09-02 00:30:00,76.5,75.0,29.77,SE,127,0.0,1.0,95,0.00,,---,0.00,VWS V14.01,2013-09-02 04:30:00,
2013-09-02 00:31:00,76.6,75.7,29.77,SE,127,0.0,0.0,97,0.00,,---,0.00,VWS V14.01,2013-09-02 04:31:00,
2013-09-02 00:36:00,76.9,75.7,29.77,SE,127,0.0,1.0,96,0.00,,---,0.00,VWS V14.01,2013-09-02 04:36:00,
2013-09-02 00:41:00,77.2,76.0,29.77,SE,127,0.0,1.0,96,0.00,,---,0.00,VWS V14.01,2013-09-02 04:41:00,
2013-09-02 00:46:00,77.3,76.1,29.77,SE,127,0.0,1.0,96,0.00,,---,0.00,VWS V14.01,2013-09-02 04:46:00,
2013-09-02 00:51:00,77.3,75.8,29.77,SE,127,0.0,1.0,95,0.00,,---,0.00,VWS V14.01,2013-09-02 04:51:00,
2013-09-02 00:56:00,77.3,75.8,29.77,SE,127,0.0,1.0,95,0.00,,---,0.00,VWS V14.01,2013-09-02 04:56:00,
2013-09-02 01:00:00,76.3,75.1,29.76,SE,127,0.0,0.0,96,0.00,,---,0.00,VWS V14.01,2013-09-02 05:00:00,
2013-09-02 01:01:00,77.5,76.0,29.77,SE,127,0.0,0.0,95,0.00,,---,0.00,VWS V14.01,2013-09-02 05:01:00,
2013-09-02 01:06:00,77.7,76.2,29.77,SE,127,0.0,1.0,95,0.00,,---,0.00,VWS V14.01,2013-09-02 05:06:00,
2013-09-02 01:11:00,77.8,75.9,29.77,SE,138,0.0,1.0,94,0.00,,---,0.00,VWS V14.01,2013-09-02 05:11:00,
2013-09-02 01:16:00,78.0,75.8,29.76,WSW,247,0.0,2.0,93,0.00,,---,0.00,VWS V14.01,2013-09-02 05:16:00,
2013-09-02 01:21:00,78.0,75.8,29.76,WSW,247,1.0,2.0,93,0.00,,---,0.00,VWS V14.01,2013-09-02 05:21:00,
2013-09-02 01:26:00,78.0,75.5,29.76,WSW,247,1.0,2.0,92,0.00,,---,0.00,VWS V14.01,2013-09-02 05:26:00,
2013-09-02 01:30:00,76.6,75.7,29.77,SE,127,0.0,1.0,97,0.00,,---,0.00,VWS V14.01,2013-09-02 05:30:00,
2013-09-02 01:31:00,78.2,75.7,29.76,WSW,247,0.0,0.0,92,0.00,,---,0.00,VWS V14.01,2013-09-02 05:31:00,
2013-09-02 01:36:00,78.2,75.7,29.76,WSW,249,2.0,2.0,92,0.00,,---,0.00,VWS V14.01,2013-09-02 05:36:00,
2013-09-02 01:41:00,78.2,75.4,29.77,WSW,251,4.0,4.0,91,0.00,,---,0.00,VWS V14.01,2013-09-02 05:41:00,
2013-09-02 01:46:00,78.1,73.9,29.77,WNW,287,1.0,6.0,87,0.00,,---,0.00,VWS V14.01,2013-09-02 05:46:00,
2013-09-02 01:51:00,77.9,73.0,29.78,West,267,3.0,6.0,85,0.00,,---,0.00,VWS V14.01,2013-09-02 05:51:00,
2013-09-02 01:56:00,77.4,72.5,29.78,SW,227,3.0,6.0,85,0.00,,---,0.00,VWS V14.01,2013-09-02 05:56:00,
2013-09-02 02:00:00,77.4,75.9,29.77,SE,127,0.0,1.0,95,0.00,,---,0.00,VWS V14.01,2013-09-02 06:00:00,
2013-09-02 02:01:00,76.7,72.5,29.78,West,259,2.0,2.0,87,0.00,,---,0.00,VWS V14.01,2013-09-02 06:01:00,
2013-09-02 02:06:00,75.7,72.2,29.78,West,261,1.0,4.0,89,0.01,,---,0.01,VWS V14.01,2013-09-02 06:06:00,
2013-09-02 02:11:00,74.8,72.0,29.78,West,274,1.0,4.0,91,0.02,,---,0.02,VWS V14.01,2013-09-02 06:11:00,
2013-09-02 02:16:00,74.2,71.7,29.77,WSW,253,0.0,4.0,92,0.03,,---,0.03,VWS V14.01,2013-09-02 06:16:00,
2013-09-02 02:21:00,74.0,71.8,29.77,West,274,0.0,4.0,93,0.04,,---,0.04,VWS V14.01,2013-09-02 06:21:00,
2013-09-02 02:26:00,73.8,72.0,29.77,West,274,0.0,4.0,94,0.05,,---,0.05,VWS V14.01,2013-09-02 06:26:00,
2013-09-02 02:30:00,73.6,72.1,29.77,West,274,0.0,4.0,95,0.06,,---,0.06,VWS V14.01,2013-09-02 06:30:00,
2013-09-02 02:31:00,73.5,72.0,29.77,West,274,0.0,0.0,95,0.06,,---,0.06,VWS V14.01,2013-09-02 06:31:00,
2013-09-02 02:36:00,73.3,71.8,29.76,West,274,1.0,1.0,95,0.07,,---,0.07,VWS V14.01,2013-09-02 06:36:00,
2013-09-02 02:41:00,73.1,71.6,29.76,West,274,0.0,1.0,95,0.07,,---,0.07,VWS V14.01,2013-09-02 06:41:00,
2013-09-02 02:46:00,72.9,71.4,29.76,West,274,0.0,1.0,95,0.07,,---,0.07,VWS V14.01,2013-09-02 06:46:00,
2013-09-02 02:51:00,72.6,71.1,29.75,West,274,0.0,1.0,95,0.08,,---,0.08,VWS V14.01,2013-09-02 06:51:00,
2013-09-02 02:56:00,72.4,71.2,29.75,West,274,0.0,1.0,96,0.08,,---,0.08,VWS V14.01,2013-09-02 06:56:00,
2013-09-02 03:00:00,72.3,71.1,29.75,West,274,0.0,1.0,96,0.08,,---,0.08,VWS V14.01,2013-09-02 07:00:00,
2013-09-02 03:01:00,72.3,71.1,29.75,West,274,0.0,0.0,96,0.08,,---,0.08,VWS V14.01,2013-09-02 07:01:00,
2013-09-02 03:06:00,72.1,70.9,29.75,West,274,0.0,0.0,96,0.08,,---,0.08,VWS V14.01,2013-09-02 07:06:00,
2013-09-02 03:11:00,72.2,71.0,29.75,West,274,0.0,0.0,96,0.08,,---,0.08,VWS V14.01,2013-09-02 07:11:00,
2013-09-02 03:16:00,72.1,70.9,29.75,West,274,0.0,0.0,96,0.08,,---,0.08,VWS V14.01,2013-09-02 07:16:00,
2013-09-02 03:21:00,72.1,70.9,29.75,West,274,0.0,0.0,96,0.08,,---,0.08,VWS V14.01,2013-09-02 07:21:00,
2013-09-02 03:26:00,72.0,71.1,29.75,West,274,0.0,1.0,97,0.08,,---,0.08,VWS V14.01,2013-09-02 07:26:00,
2013-09-02 03:30:00,71.9,71.0,29.75,West,274,0.0,1.0,97,0.08,,---,0.08,VWS V14.01,2013-09-02 07:30:00,
2013-09-02 03:31:00,72.0,71.1,29.75,West,274,0.0,0.0,97,0.02,,---,0.08,VWS V14.01,2013-09-02 07:31:00,
2013-09-02 03:36:00,71.9,71.0,29.75,West,274,0.0,0.0,97,0.02,,---,0.08,VWS V14.01,2013-09-02 07:36:00,
2013-09-02 03:41:00,71.8,70.9,29.75,West,274,0.0,0.0,97,0.02,,---,0.08,VWS V14.01,2013-09-02 07:41:00,
2013-09-02 03:46:00,71.9,71.0,29.75,West,274,0.0,0.0,97,0.02,,---,0.08,VWS V14.01,2013-09-02 07:46:00,
2013-09-02 03:51:00,71.9,71.0,29.74,West,274,0.0,0.0,97,0.02,,---,0.08,VWS V14.01,2013-09-02 07:51:00,
2013-09-02 03:56:00,71.8,70.9,29.74,West,274,0.0,0.0,97,0.02,,---,0.08,VWS V14.01,2013-09-02 07:56:00,
2013-09-02 04:00:00,72.3,71.1,29.75,West,274,0.0,1.0,96,0.08,,---,0.08,VWS V14.01,2013-09-02 08:00:00,
2013-09-02 04:01:00,71.8,70.9,29.74,West,274,0.0,0.0,97,0.00,,---,0.08,VWS V14.01,2013-09-02 08:01:00,
2013-09-02 04:06:00,71.7,70.8,29.74,West,274,0.0,0.0,97,0.00,,---,0.08,VWS V14.01,2013-09-02 08:06:00,
2013-09-02 04:11:00,71.8,71.2,29.74,West,274,0.0,0.0,98,0.00,,---,0.08,VWS V14.01,2013-09-02 08:11:00,
2013-09-02 04:16:00,71.9,71.3,29.74,West,274,0.0,0.0,98,0.00,,---,0.08,VWS V14.01,2013-09-02 08:16:00,
2013-09-02 04:21:00,72.0,71.4,29.74,West,274,0.0,1.0,98,0.00,,---,0.08,VWS V14.01,2013-09-02 08:21:00,
2013-09-02 04:26:00,72.1,71.5,29.75,West,274,0.0,1.0,98,0.00,,---,0.08,VWS V14.01,2013-09-02 08:26:00,
2013-09-02 04:30:00,71.9,71.0,29.75,West,274,0.0,1.0,97,0.00,,---,0.08,VWS V14.01,2013-09-02 08:30:00,
2013-09-02 04:31:00,71.9,71.0,29.75,West,274,0.0,0.0,97,0.00,,---,0.08,VWS V14.01,2013-09-02 08:31:00,
2013-09-02 04:36:00,71.8,71.2,29.75,West,274,0.0,0.0,98,0.00,,---,0.08,VWS V14.01,2013-09-02 08:36:00,
2013-09-02 04:41:00,71.8,71.2,29.75,West,274,0.0,0.0,98,0.00,,---,0.08,VWS V14.01,2013-09-02 08:41:00,
2013-09-02 04:46:00,71.7,71.1,29.75,West,274,0.0,0.0,98,0.00,,---,0.08,VWS V14.01,2013-09-02 08:46:00,
2013-09-02 04:51:00,71.7,71.1,29.75,West,274,0.0,0.0,98,0.00,,---,0.08,VWS V14.01,2013-09-02 08:51:00,
2013-09-02 04:56:00,71.8,71.2,29.76,West,274,0.0,1.0,98,0.00,,---,0.08,VWS V14.01,2013-09-02 08:56:00,
2013-09-02 05:00:00,71.8,71.2,29.76,West,274,0.0,1.0,98,0.00,,---,0.08,VWS V14.01,2013-09-02 09:00:00,
2013-09-02 05:01:00,71.8,71.2,29.76,West,274,0.0,0.0,98,0.00,,---,0.08,VWS V14.01,2013-09-02 09:01:00,
2013-09-02 05:06:00,71.8,71.2,29.76,West,274,0.0,0.0,98,0.00,,---,0.08,VWS V14.01,2013-09-02 09:06:00,
2013-09-02 05:11:00,71.8,71.2,29.76,West,274,0.0,0.0,98,0.00,,---,0.08,VWS V14.01,2013-09-02 09:11:00,
2013-09-02 05:16:00,71.7,71.1,29.76,West,274,0.0,1.0,98,0.00,,---,0.08,VWS V14.01,2013-09-02 09:16:00,
2013-09-02 05:21:00,71.7,71.1,29.76,West,274,0.0,1.0,98,0.00,,---,0.08,VWS V14.01,2013-09-02 09:21:00,
2013-09-02 05:26:00,71.7,71.1,29.76,West,274,0.0,1.0,98,0.00,,---,0.08,VWS V14.01,2013-09-02 09:26:00,
2013-09-02 05:30:00,71.8,71.2,29.76,West,274,0.0,1.0,98,0.00,,---,0.08,VWS V14.01,2013-09-02 09:30:00,
2013-09-02 05:31:00,71.8,71.2,29.76,West,274,0.0,1.0,98,0.00,,---,0.08,VWS V14.01,2013-09-02 09:31:00,
2013-09-02 05:36:00,71.8,71.2,29.76,West,274,0.0,0.0,98,0.00,,---,0.08,VWS V14.01,2013-09-02 09:36:00,
2013-09-02 05:41:00,71.8,71.2,29.76,West,274,0.0,0.0,98,0.00,,---,0.08,VWS V14.01,2013-09-02 09:41:00,
2013-09-02 05:46:00,71.8,71.2,29.76,West,274,0.0,0.0,98,0.00,,---,0.08,VWS V14.01,2013-09-02 09:46:00,
2013-09-02 05:51:00,71.8,71.2,29.76,West,274,0.0,0.0,98,0.00,,---,0.08,VWS V14.01,2013-09-02 09:51:00,
2013-09-02 05:56:00,71.8,71.2,29.76,West,274,0.0,0.0,98,0.00,,---,0.08,VWS V14.01,2013-09-02 09:56:00,
2013-09-02 06:00:00,71.8,71.2,29.76,West,274,0.0,0.0,98,0.00,,---,0.08,VWS V14.01,2013-09-02 10:00:00,
2013-09-02 06:01:00,71.8,71.2,29.76,West,274,0.0,0.0,98,0.00,,---,0.08,VWS V14.01,2013-09-02 10:01:00,
2013-09-02 06:06:00,71.9,71.3,29.76,West,274,0.0,0.0,98,0.00,,---,0.08,VWS V14.01,2013-09-02 10:06:00,
2013-09-02 06:11:00,71.9,71.3,29.76,West,274,0.0,0.0,98,0.00,,---,0.08,VWS V14.01,2013-09-02 10:11:00,
2013-09-02 06:16:00,71.8,71.2,29.76,West,274,0.0,0.0,98,0.00,,---,0.08,VWS V14.01,2013-09-02 10:16:00,
2013-09-02 06:21:00,71.8,71.2,29.76,West,274,0.0,0.0,98,0.00,,---,0.08,VWS V14.01,2013-09-02 10:21:00,
2013-09-02 06:26:00,71.7,71.1,29.76,West,274,0.0,0.0,98,0.00,,---,0.08,VWS V14.01,2013-09-02 10:26:00,
2013-09-02 06:30:00,71.7,71.1,29.76,West,274,0.0,0.0,98,0.00,,---,0.08,VWS V14.01,2013-09-02 10:30:00,
2013-09-02 06:31:00,71.7,71.1,29.76,West,274,0.0,0.0,98,0.00,,---,0.08,VWS V14.01,2013-09-02 10:31:00,
2013-09-02 06:36:00,71.7,71.1,29.76,West,274,0.0,0.0,98,0.00,,---,0.08,VWS V14.01,2013-09-02 10:36:00,
2013-09-02 06:41:00,71.7,71.1,29.76,West,274,0.0,0.0,98,0.00,,---,0.08,VWS V14.01,2013-09-02 10:41:00,
2013-09-02 06:46:00,71.8,71.2,29.76,West,274,0.0,0.0,98,0.00,,---,0.08,VWS V14.01,2013-09-02 10:46:00,
2013-09-02 06:51:00,71.8,71.2,29.77,West,274,0.0,0.0,98,0.00,,---,0.08,VWS V14.01,2013-09-02 10:51:00,
2013-09-02 06:56:00,71.8,71.2,29.77,West,274,0.0,0.0,98,0.00,,---,0.08,VWS V14.01,2013-09-02 10:56:00,
2013-09-02 07:00:00,71.9,71.3,29.77,West,274,0.0,1.0,98,0.00,,---,0.08,VWS V14.01,2013-09-02 11:00:00,
2013-09-02 07:01:00,71.9,71.3,29.77,West,274,0.0,1.0,98,0.00,,---,0.08,VWS V14.01,2013-09-02 11:01:00,
2013-09-02 07:06:00,71.9,71.3,29.77,West,274,0.0,0.0,98,0.00,,---,0.08,VWS V14.01,2013-09-02 11:06:00,
2013-09-02 07:11:00,71.9,71.3,29.77,West,274,0.0,0.0,98,0.00,,---,0.08,VWS V14.01,2013-09-02 11:11:00,
2013-09-02 07:16:00,71.9,71.3,29.78,West,274,0.0,0.0,98,0.00,,---,0.08,VWS V14.01,2013-09-02 11:16:00,
2013-09-02 07:21:00,72.0,71.4,29.77,West,274,0.0,0.0,98,0.00,,---,0.08,VWS V14.01,2013-09-02 11:21:00,
2013-09-02 07:26:00,71.9,71.3,29.77,West,274,0.0,0.0,98,0.00,,---,0.08,VWS V14.01,2013-09-02 11:26:00,
2013-09-02 07:30:00,71.7,71.1,29.76,West,274,0.0,0.0,98,0.00,,---,0.08,VWS V14.01,2013-09-02 11:30:00,
2013-09-02 07:31:00,71.9,71.3,29.78,West,274,0.0,0.0,98,0.00,,---,0.08,VWS V14.01,2013-09-02 11:31:00,
2013-09-02 07:36:00,71.9,71.3,29.78,West,274,0.0,0.0,98,0.00,,---,0.08,VWS V14.01,2013-09-02 11:36:00,
2013-09-02 07:41:00,71.9,71.3,29.78,West,274,0.0,0.0,98,0.00,,---,0.08,VWS V14.01,2013-09-02 11:41:00,
2013-09-02 07:46:00,71.9,71.3,29.78,West,274,0.0,0.0,98,0.00,,---,0.08,VWS V14.01,2013-09-02 11:46:00,
2013-09-02 07:51:00,72.0,71.4,29.78,West,274,0.0,0.0,98,0.00,,---,0.08,VWS V14.01,2013-09-02 11:51:00,
2013-09-02 07:56:00,72.5,72.2,29.78,West,274,0.0,0.0,99,0.00,,---,0.08,VWS V14.01,2013-09-02 11:56:00,
2013-09-02 08:00:00,72.7,72.4,29.78,West,274,0.0,0.0,99,0.00,,---,0.08,VWS V14.01,2013-09-02 12:00:00,
2013-09-02 08:01:00,72.7,72.4,29.78,West,274,0.0,0.0,99,0.00,,---,0.08,VWS V14.01,2013-09-02 12:01:00,
2013-09-02 08:06:00,73.3,73.0,29.79,West,274,0.0,0.0,99,0.00,,---,0.08,VWS V14.01,2013-09-02 12:06:00,
2013-09-02 08:11:00,74.0,73.7,29.78,West,274,0.0,0.0,99,0.00,,---,0.08,VWS V14.01,2013-09-02 12:11:00,
2013-09-02 08:16:00,74.1,73.5,29.78,West,274,0.0,2.0,98,0.00,,---,0.08,VWS V14.01,2013-09-02 12:16:00,
2013-09-02 08:21:00,74.0,73.4,29.78,West,274,0.0,2.0,98,0.00,,---,0.08,VWS V14.01,2013-09-02 12:21:00,
2013-09-02 08:26:00,73.9,73.0,29.77,West,274,0.0,2.0,97,0.00,,---,0.08,VWS V14.01,2013-09-02 12:26:00,
2013-09-02 08:30:00,74.0,73.1,29.77,West,274,0.0,2.0,97,0.00,,---,0.08,VWS V14.01,2013-09-02 12:30:00,
2013-09-02 08:35:00,74.7,74.1,29.77,West,274,0.0,0.0,98,0.00,,---,0.08,VWS V14.01,2013-09-02 12:35:00,
2013-09-02 08:40:00,75.0,74.1,29.78,West,274,0.0,1.0,97,0.00,,---,0.08,VWS V14.01,2013-09-02 12:40:00,
2013-09-02 08:45:00,75.5,74.3,29.78,West,274,0.0,1.0,96,0.00,,---,0.08,VWS V14.01,2013-09-02 12:45:00,
2013-09-02 08:50:00,75.8,74.3,29.78,West,274,0.0,1.0,95,0.00,,---,0.08,VWS V14.01,2013-09-02 12:50:00,
2013-09-02 08:55:00,76.1,74.2,29.78,West,274,0.0,1.0,94,0.00,,---,0.08,VWS V14.01,2013-09-02 12:55:00,
2013-09-02 09:00:00,76.5,75.0,29.78,West,274,0.0,1.0,95,0.00,,---,0.08,VWS V14.01,2013-09-02 13:00:00,
2013-09-02 09:05:00,77.1,74.9,29.78,West,274,0.0,1.0,93,0.00,,---,0.08,VWS V14.01,2013-09-02 13:05:00,
2013-09-02 09:10:00,76.9,74.4,29.79,West,274,0.0,1.0,92,0.00,,---,0.08,VWS V14.01,2013-09-02 13:10:00,
2013-09-02 09:15:00,76.8,74.3,29.78,West,274,0.0,1.0,92,0.00,,---,0.08,VWS V14.01,2013-09-02 13:15:00,
2013-09-02 09:20:00,77.0,74.5,29.78,West,274,0.0,1.0,92,0.00,,---,0.08,VWS V14.01,2013-09-02 13:20:00,
2013-09-02 09:25:00,77.3,74.5,29.78,West,274,0.0,1.0,91,0.00,,---,0.08,VWS V14.01,2013-09-02 13:25:00,
2013-09-02 09:30:00,76.6,73.4,29.78,West,274,0.0,2.0,90,0.00,,---,0.08,VWS V14.01,2013-09-02 13:30:00,
2013-09-02 09:35:00,76.2,73.4,29.78,West,274,0.0,0.0,91,0.00,,---,0.08,VWS V14.01,2013-09-02 13:35:00,
2013-09-02 09:40:00,77.2,74.4,29.79,West,268,0.0,1.0,91,0.00,,---,0.08,VWS V14.01,2013-09-02 13:40:00,
2013-09-02 09:45:00,77.9,74.4,29.79,West,268,0.0,1.0,89,0.00,,---,0.08,VWS V14.01,2013-09-02 13:45:00,
2013-09-02 09:50:00,78.8,74.6,29.79,West,268,0.0,1.0,87,0.00,,---,0.08,VWS V14.01,2013-09-02 13:50:00,
2013-09-02 09:55:00,79.9,75.3,29.79,West,267,1.0,2.0,86,0.00,,---,0.08,VWS V14.01,2013-09-02 13:55:00,
2013-09-02 10:00:00,80.5,75.6,29.79,WSW,255,0.0,2.0,85,0.00,,---,0.08,VWS V14.01,2013-09-02 14:00:00,
2013-09-02 10:05:00,80.5,74.1,29.79,NW,323,0.0,2.0,81,0.00,,---,0.08,VWS V14.01,2013-09-02 14:05:00,
2013-09-02 10:10:00,80.8,75.2,29.79,NNE,12,1.0,3.0,83,0.00,,---,0.08,VWS V14.01,2013-09-02 14:10:00,
2013-09-02 10:15:00,80.5,73.8,29.79,NNW,341,0.0,3.0,80,0.00,,---,0.08,VWS V14.01,2013-09-02 14:15:00,
2013-09-02 10:20:00,81.6,75.2,29.79,NW,316,0.0,3.0,81,0.00,,---,0.08,VWS V14.01,2013-09-02 14:20:00,
2013-09-02 10:25:00,82.0,75.6,29.79,NW,316,0.0,3.0,81,0.00,,---,0.08,VWS V14.01,2013-09-02 14:25:00,
2013-09-02 10:30:00,82.1,75.7,29.78,NW,316,0.0,3.0,81,0.00,,---,0.08,VWS V14.01,2013-09-02 14:30:00,
2013-09-02 10:35:00,82.2,75.0,29.78,NW,316,1.0,2.0,79,0.00,,---,0.08,VWS V14.01,2013-09-02 14:35:00,
2013-09-02 10:40:00,81.4,74.6,29.78,NW,316,2.0,2.0,80,0.00,,---,0.08,VWS V14.01,2013-09-02 14:40:00,
2013-09-02 10:45:00,80.6,74.2,29.78,NW,316,0.0,2.0,81,0.00,,---,0.08,VWS V14.01,2013-09-02 14:45:00,
2013-09-02 10:50:00,82.4,76.0,29.78,NW,308,0.0,2.0,81,0.00,,---,0.08,VWS V14.01,2013-09-02 14:50:00,
2013-09-02 10:55:00,82.5,75.3,29.79,West,264,0.0,4.0,79,0.00,,---,0.08,VWS V14.01,2013-09-02 14:55:00,
2013-09-02 11:00:00,83.4,75.1,29.78,WSW,247,1.0,4.0,76,0.00,,---,0.08,VWS V14.01,2013-09-02 15:00:00,
2013-09-02 11:05:00,83.8,75.0,29.79,WSW,247,0.0,2.0,75,0.00,,---,0.08,VWS V14.01,2013-09-02 15:05:00,
2013-09-02 11:10:00,83.0,75.1,29.79,NW,321,0.0,3.0,77,0.00,,---,0.08,VWS V14.01,2013-09-02 15:10:00,
2013-09-02 11:15:00,83.4,74.7,29.79,West,259,0.0,3.0,75,0.00,,---,0.08,VWS V14.01,2013-09-02 15:15:00,
2013-09-02 11:20:00,84.4,74.8,29.78,SW,231,0.0,3.0,73,0.00,,---,0.08,VWS V14.01,2013-09-02 15:20:00,
2013-09-02 11:25:00,84.4,75.2,29.78,SW,231,1.0,3.0,74,0.00,,---,0.08,VWS V14.01,2013-09-02 15:25:00,
2013-09-02 11:30:00,84.0,74.4,29.78,NNW,340,0.0,3.0,73,0.00,,---,0.08,VWS V14.01,2013-09-02 15:30:00,
2013-09-02 11:35:00,83.8,74.6,29.78,NNW,338,0.0,1.0,74,0.00,,---,0.08,VWS V14.01,2013-09-02 15:35:00,
2013-09-02 11:40:00,85.2,74.7,29.78,West,275,0.0,2.0,71,0.00,,---,0.08,VWS V14.01,2013-09-02 15:40:00,
2013-09-02 11:45:00,85.5,74.6,29.78,NW,324,0.0,3.0,70,0.00,,---,0.08,VWS V14.01,2013-09-02 15:45:00,
2013-09-02 11:50:00,83.6,74.0,29.78,North,350,0.0,3.0,73,0.00,,---,0.08,VWS V14.01,2013-09-02 15:50:00,
2013-09-02 11:55:00,83.9,75.1,29.78,NNW,343,1.0,3.0,75,0.00,,---,0.08,VWS V14.01,2013-09-02 15:55:00,
2013-09-02 12:00:00,84.6,74.6,29.78,West,278,1.0,3.0,72,0.00,,---,0.08,VWS V14.01,2013-09-02 16:00:00,
2013-09-02 12:05:00,85.7,74.8,29.78,West,278,0.0,2.0,70,0.00,,---,0.08,VWS V14.01,2013-09-02 16:05:00,
2013-09-02 12:10:00,85.9,75.4,29.78,WNW,300,0.0,2.0,71,0.00,,---,0.08,VWS V14.01,2013-09-02 16:10:00,
2013-09-02 12:15:00,86.1,75.2,29.77,WNW,288,0.0,2.0,70,0.00,,---,0.08,VWS V14.01,2013-09-02 16:15:00,
2013-09-02 12:20:00,86.4,74.2,29.77,West,266,0.0,3.0,67,0.00,,---,0.08,VWS V14.01,2013-09-02 16:20:00,
2013-09-02 12:25:00,85.9,73.2,29.77,ESE,119,2.0,3.0,66,0.00,,---,0.08,VWS V14.01,2013-09-02 16:25:00,
2013-09-02 12:30:00,86.1,73.9,29.77,WSW,246,0.0,3.0,67,0.00,,---,0.08,VWS V14.01,2013-09-02 16:30:00,
2013-09-02 12:35:00,86.3,74.1,29.77,NW,319,1.0,3.0,67,0.00,,---,0.08,VWS V14.01,2013-09-02 16:35:00,
2013-09-02 12:40:00,85.8,74.5,29.77,NW,319,1.0,3.0,69,0.00,,---,0.08,VWS V14.01,2013-09-02 16:40:00,
2013-09-02 12:45:00,87.4,74.7,29.77,WSW,250,0.0,3.0,66,0.00,,---,0.08,VWS V14.01,2013-09-02 16:45:00,
2013-09-02 12:50:00,86.8,75.0,29.76,South,181,0.0,3.0,68,0.00,,---,0.08,VWS V14.01,2013-09-02 16:50:00,
2013-09-02 12:55:00,87.1,74.4,29.76,NW,315,0.0,3.0,66,0.00,,---,0.08,VWS V14.01,2013-09-02 16:55:00,
2013-09-02 13:00:00,87.0,75.2,29.76,West,269,0.0,3.0,68,0.00,,---,0.08,VWS V14.01,2013-09-02 17:00:00,
2013-09-02 13:05:00,87.5,74.8,29.76,WSW,247,0.0,3.0,66,0.00,,---,0.08,VWS V14.01,2013-09-02 17:05:00,
2013-09-02 13:10:00,87.2,74.5,29.76,WSW,250,0.0,3.0,66,0.00,,---,0.08,VWS V14.01,2013-09-02 17:10:00,
2013-09-02 13:15:00,87.4,75.1,29.76,WSW,258,1.0,3.0,67,0.00,,---,0.08,VWS V14.01,2013-09-02 17:15:00,
2013-09-02 13:20:00,88.2,75.0,29.76,WSW,254,1.0,3.0,65,0.00,,---,0.08,VWS V14.01,2013-09-02 17:20:00,
2013-09-02 13:25:00,88.3,74.1,29.76,WSW,243,1.0,3.0,63,0.00,,---,0.08,VWS V14.01,2013-09-02 17:25:00,
2013-09-02 13:30:00,88.5,73.8,29.76,WSW,241,0.0,3.0,62,0.00,,---,0.08,VWS V14.01,2013-09-02 17:30:00,
2013-09-02 13:35:00,88.8,75.1,29.76,WSW,254,0.0,3.0,64,0.00,,---,0.08,VWS V14.01,2013-09-02 17:35:00,
2013-09-02 13:40:00,88.3,74.1,29.76,NW,323,1.0,3.0,63,0.00,,---,0.08,VWS V14.01,2013-09-02 17:40:00,
2013-09-02 13:45:00,89.0,74.8,29.76,WSW,240,0.0,3.0,63,0.00,,---,0.08,VWS V14.01,2013-09-02 17:45:00,
2013-09-02 13:50:00,89.2,74.0,29.76,WSW,251,1.0,3.0,61,0.00,,---,0.08,VWS V14.01,2013-09-02 17:50:00,
2013-09-02 13:55:00,88.6,74.4,29.75,NW,319,0.0,3.0,63,0.00,,---,0.08,VWS V14.01,2013-09-02 17:55:00,
2013-09-02 14:00:00,88.9,73.7,29.75,West,272,1.0,4.0,61,0.00,,---,0.08,VWS V14.01,2013-09-02 18:00:00,
2013-09-02 14:05:00,89.5,72.8,29.75,WSW,258,0.0,3.0,58,0.00,,---,0.08,VWS V14.01,2013-09-02 18:05:00,
2013-09-02 14:10:00,89.2,73.0,29.75,WSW,252,0.0,4.0,59,0.00,,---,0.08,VWS V14.01,2013-09-02 18:10:00,
2013-09-02 14:15:00,89.8,74.1,29.74,WSW,250,1.0,4.0,60,0.00,,---,0.08,VWS V14.01,2013-09-02 18:15:00,
2013-09-02 14:20:00,89.5,73.3,29.74,West,276,0.0,4.0,59,0.00,,---,0.08,VWS V14.01,2013-09-02 18:20:00,
2013-09-02 14:25:00,89.3,72.6,29.74,WSW,245,0.0,4.0,58,0.00,,---,0.08,VWS V14.01,2013-09-02 18:25:00,
2013-09-02 14:30:00,89.9,72.6,29.74,NNW,328,0.0,4.0,57,0.00,,---,0.08,VWS V14.01,2013-09-02 18:30:00,
2013-09-02 14:35:00,89.7,73.0,29.74,SSW,194,0.0,4.0,58,0.00,,---,0.08,VWS V14.01,2013-09-02 18:35:00,
2013-09-02 14:40:00,90.3,73.5,29.74,North,359,3.0,4.0,58,0.00,,---,0.08,VWS V14.01,2013-09-02 18:40:00,
2013-09-02 14:45:00,90.2,73.9,29.73,West,262,1.0,4.0,59,0.00,,---,0.08,VWS V14.01,2013-09-02 18:45:00,
2013-09-02 14:50:00,90.6,73.3,29.73,West,278,1.0,4.0,57,0.00,,---,0.08,VWS V14.01,2013-09-02 18:50:00,
2013-09-02 14:55:00,90.7,73.4,29.73,WSW,258,1.0,4.0,57,0.00,,---,0.08,VWS V14.01,2013-09-02 18:55:00,
2013-09-02 15:00:00,90.6,72.8,29.73,WSW,244,0.0,4.0,56,0.00,,---,0.08,VWS V14.01,2013-09-02 19:00:00,
2013-09-02 15:05:00,89.6,72.4,29.73,WNW,288,0.0,5.0,57,0.00,,---,0.08,VWS V14.01,2013-09-02 19:05:00,
2013-09-02 15:10:00,89.1,72.4,29.73,NNE,15,1.0,5.0,58,0.00,,---,0.08,VWS V14.01,2013-09-02 19:10:00,
2013-09-02 15:15:00,88.7,72.5,29.73,WNW,290,0.0,5.0,59,0.00,,---,0.08,VWS V14.01,2013-09-02 19:15:00,
2013-09-02 15:20:00,88.6,72.9,29.72,SW,223,1.0,5.0,60,0.00,,---,0.08,VWS V14.01,2013-09-02 19:20:00,
2013-09-02 15:25:00,88.7,73.5,29.73,SW,223,0.0,5.0,61,0.00,,---,0.08,VWS V14.01,2013-09-02 19:25:00,
2013-09-02 15:30:00,89.4,72.7,29.72,SW,233,0.0,5.0,58,0.00,,---,0.08,VWS V14.01,2013-09-02 19:30:00,
2013-09-02 15:35:00,90.1,73.8,29.72,NNW,328,3.0,4.0,59,0.00,,---,0.08,VWS V14.01,2013-09-02 19:35:00,
2013-09-02 15:40:00,89.1,73.4,29.72,SW,219,0.0,4.0,60,0.00,,---,0.08,VWS V14.01,2013-09-02 19:40:00,
2013-09-02 15:45:00,87.7,73.6,29.72,SW,217,0.0,4.0,63,0.00,,---,0.08,VWS V14.01,2013-09-02 19:45:00,
2013-09-02 15:50:00,88.2,73.1,29.72,NNW,336,0.0,4.0,61,0.00,,---,0.08,VWS V14.01,2013-09-02 19:50:00,
2013-09-02 15:55:00,88.1,73.4,29.72,NW,314,0.0,4.0,62,0.00,,---,0.08,VWS V14.01,2013-09-02 19:55:00,
2013-09-02 16:00:00,88.5,72.3,29.72,WNW,298,0.0,4.0,59,0.00,,---,0.08,VWS V14.01,2013-09-02 20:00:00,
2013-09-02 16:05:00,88.9,72.2,29.72,West,259,0.0,1.0,58,0.00,,---,0.08,VWS V14.01,2013-09-02 20:05:00,
2013-09-02 16:10:00,88.7,72.0,29.72,WSW,245,0.0,2.0,58,0.00,,---,0.08,VWS V14.01,2013-09-02 20:10:00,
2013-09-02 16:15:00,87.8,72.7,29.72,WSW,245,0.0,2.0,61,0.00,,---,0.08,VWS V14.01,2013-09-02 20:15:00,
2013-09-02 16:20:00,87.7,72.6,29.72,WSW,245,0.0,2.0,61,0.00,,---,0.08,VWS V14.01,2013-09-02 20:20:00,
2013-09-02 16:25:00,87.3,72.7,29.72,WSW,245,0.0,2.0,62,0.00,,---,0.08,VWS V14.01,2013-09-02 20:25:00,
2013-09-02 16:30:00,88.0,72.4,29.72,WSW,241,0.0,2.0,60,0.00,,---,0.08,VWS V14.01,2013-09-02 20:30:00,
2013-09-02 16:35:00,88.4,72.8,29.72,SW,218,0.0,3.0,60,0.00,,---,0.08,VWS V14.01,2013-09-02 20:35:00,
2013-09-02 16:40:00,88.6,72.4,29.71,West,275,0.0,3.0,59,0.00,,---,0.08,VWS V14.01,2013-09-02 20:40:00,
2013-09-02 16:45:00,87.9,72.3,29.71,West,266,0.0,3.0,60,0.00,,---,0.08,VWS V14.01,2013-09-02 20:45:00,
2013-09-02 16:50:00,88.9,71.7,29.71,WSW,252,0.0,3.0,57,0.00,,---,0.08,VWS V14.01,2013-09-02 20:50:00,
2013-09-02 16:55:00,89.2,72.5,29.71,NW,316,0.0,3.0,58,0.00,,---,0.08,VWS V14.01,2013-09-02 20:55:00,
2013-09-02 17:00:00,89.0,71.3,29.71,WSW,240,0.0,3.0,56,0.00,,---,0.08,VWS V14.01,2013-09-02 21:00:00,
2013-09-02 17:05:00,88.6,71.4,29.71,NW,323,1.0,4.0,57,0.00,,---,0.08,VWS V14.01,2013-09-02 21:05:00,
2013-09-02 17:10:00,89.0,71.3,29.71,WSW,237,0.0,4.0,56,0.00,,---,0.08,VWS V14.01,2013-09-02 21:10:00,
2013-09-02 17:15:00,89.5,71.2,29.71,WSW,238,1.0,4.0,55,0.00,,---,0.08,VWS V14.01,2013-09-02 21:15:00,
2013-09-02 17:20:00,89.3,71.0,29.71,WSW,238,2.0,4.0,55,0.00,,---,0.08,VWS V14.01,2013-09-02 21:20:00,
2013-09-02 17:25:00,89.2,72.0,29.71,WSW,248,0.0,4.0,57,0.00,,---,0.08,VWS V14.01,2013-09-02 21:25:00,
2013-09-02 17:30:00,88.6,71.9,29.71,WSW,248,0.0,4.0,58,0.00,,---,0.08,VWS V14.01,2013-09-02 21:30:00,
2013-09-02 17:35:00,88.2,71.6,29.71,WSW,248,0.0,1.0,58,0.00,,---,0.08,VWS V14.01,2013-09-02 21:35:00,
2013-09-02 17:40:00,87.6,73.0,29.70,WSW,248,0.0,1.0,62,0.00,,---,0.08,VWS V14.01,2013-09-02 21:40:00,
2013-09-02 17:45:00,87.0,72.4,29.70,WSW,248,0.0,1.0,62,0.00,,---,0.08,VWS V14.01,2013-09-02 21:45:00,
2013-09-02 17:50:00,86.6,73.0,29.70,WSW,248,0.0,1.0,64,0.00,,---,0.08,VWS V14.01,2013-09-02 21:50:00,
2013-09-02 17:55:00,87.2,72.1,29.70,WSW,248,1.0,1.0,61,0.00,,---,0.08,VWS V14.01,2013-09-02 21:55:00,
2013-09-02 18:00:00,87.9,71.8,29.70,WSW,255,0.0,3.0,59,0.00,,---,0.08,VWS V14.01,2013-09-02 22:00:00,
2013-09-02 18:05:00,88.2,71.6,29.70,WSW,251,0.0,3.0,58,0.00,,---,0.08,VWS V14.01,2013-09-02 22:05:00,
2013-09-02 18:10:00,88.3,71.2,29.70,WSW,252,0.0,4.0,57,0.00,,---,0.08,VWS V14.01,2013-09-02 22:10:00,
2013-09-02 18:15:00,88.1,72.0,29.70,WSW,249,1.0,4.0,59,0.00,,---,0.08,VWS V14.01,2013-09-02 22:15:00,
2013-09-02 18:20:00,87.8,72.7,29.70,WSW,245,0.0,4.0,61,0.00,,---,0.08,VWS V14.01,2013-09-02 22:20:00,
2013-09-02 18:25:00,87.4,73.3,29.70,WSW,245,0.0,4.0,63,0.00,,---,0.08,VWS V14.01,2013-09-02 22:25:00,
2013-09-02 18:30:00,87.0,73.4,29.71,WSW,243,0.0,4.0,64,0.00,,---,0.08,VWS V14.01,2013-09-02 22:30:00,
2013-09-02 18:35:00,86.9,73.7,29.71,WSW,243,0.0,2.0,65,0.00,,---,0.08,VWS V14.01,2013-09-02 22:35:00,
2013-09-02 18:40:00,86.6,73.9,29.71,WSW,243,0.0,2.0,66,0.00,,---,0.08,VWS V14.01,2013-09-02 22:40:00,
2013-09-02 18:45:00,86.3,74.1,29.71,WSW,243,0.0,2.0,67,0.00,,---,0.08,VWS V14.01,2013-09-02 22:45:00,
2013-09-02 18:50:00,86.0,73.8,29.71,WSW,243,1.0,2.0,67,0.00,,---,0.08,VWS V14.01,2013-09-02 22:50:00,
2013-09-02 18:55:00,85.8,74.0,29.72,WSW,243,0.0,2.0,68,0.00,,---,0.08,VWS V14.01,2013-09-02 22:55:00,
2013-09-02 19:00:00,85.7,73.9,29.72,WSW,248,0.0,2.0,68,0.00,,---,0.08,VWS V14.01,2013-09-02 23:00:00,
2013-09-02 19:05:00,85.3,74.4,29.72,WSW,248,0.0,1.0,70,0.00,,---,0.08,VWS V14.01,2013-09-02 23:05:00,
2013-09-02 19:10:00,84.6,74.6,29.72,WSW,248,0.0,1.0,72,0.00,,---,0.08,VWS V14.01,2013-09-02 23:10:00,
2013-09-02 19:15:00,84.3,74.3,29.72,WSW,252,0.0,3.0,72,0.00,,---,0.08,VWS V14.01,2013-09-02 23:15:00,
2013-09-02 19:20:00,84.4,74.4,29.72,WSW,252,0.0,3.0,72,0.00,,---,0.08,VWS V14.01,2013-09-02 23:20:00,
2013-09-02 19:25:00,84.1,74.5,29.72,SW,216,0.0,3.0,73,0.00,,---,0.08,VWS V14.01,2013-09-02 23:25:00,
2013-09-02 19:30:00,83.7,74.9,29.72,SW,216,0.0,3.0,75,0.00,,---,0.08,VWS V14.01,2013-09-02 23:30:00,
2013-09-02 19:35:00,83.3,74.6,29.72,SW,216,0.0,1.0,75,0.00,,---,0.08,VWS V14.01,2013-09-02 23:35:00,
2013-09-02 19:40:00,83.2,74.5,29.72,SW,216,0.0,1.0,75,0.00,,---,0.08,VWS V14.01,2013-09-02 23:40:00,
2013-09-02 19:45:00,83.1,74.4,29.72,SW,216,0.0,1.0,75,0.00,,---,0.08,VWS V14.01,2013-09-02 23:45:00,
2013-09-02 19:50:00,83.0,74.3,29.72,SW,216,0.0,2.0,75,0.00,,---,0.08,VWS V14.01,2013-09-02 23:50:00,
2013-09-02 19:55:00,82.8,74.5,29.72,SW,216,0.0,2.0,76,0.00,,---,0.08,VWS V14.01,2013-09-02 23:55:00,
2013-09-02 20:00:00,82.6,74.3,29.72,SW,217,1.0,2.0,76,0.00,,---,0.08,VWS V14.01,2013-09-03 00:00:00,
2013-09-02 20:05:00,82.5,74.2,29.72,SW,223,2.0,2.0,76,0.00,,---,0.08,VWS V14.01,2013-09-03 00:05:00,
2013-09-02 20:10:00,82.5,74.2,29.72,SSE,164,0.0,2.0,76,0.00,,---,0.08,VWS V14.01,2013-09-03 00:10:00,
2013-09-02 20:15:00,82.4,74.1,29.72,South,188,0.0,2.0,76,0.00,,---,0.08,VWS V14.01,2013-09-03 00:15:00,
2013-09-02 20:20:00,82.2,74.3,29.72,SSW,211,0.0,2.0,77,0.00,,---,0.08,VWS V14.01,2013-09-03 00:20:00,
2013-09-02 20:25:00,82.0,74.1,29.72,SSW,212,0.0,2.0,77,0.00,,---,0.08,VWS V14.01,2013-09-03 00:25:00,
2013-09-02 20:30:00,81.9,74.0,29.73,SSW,212,0.0,2.0,77,0.00,,---,0.08,VWS V14.01,2013-09-03 00:30:00,
2013-09-02 20:35:00,81.7,73.8,29.72,SW,214,0.0,2.0,77,0.00,,---,0.08,VWS V14.01,2013-09-03 00:35:00,
2013-09-02 20:40:00,81.1,74.0,29.72,SW,214,0.0,2.0,79,0.00,,---,0.08,VWS V14.01,2013-09-03 00:40:00,
2013-09-02 20:45:00,80.3,74.3,29.72,SW,214,0.0,2.0,82,0.00,,---,0.08,VWS V14.01,2013-09-03 00:45:00,
2013-09-02 20:50:00,79.8,73.8,29.72,SW,214,0.0,2.0,82,0.00,,---,0.08,VWS V14.01,2013-09-03 00:50:00,
2013-09-02 20:55:00,80.1,73.8,29.73,West,266,0.0,3.0,81,0.00,,---,0.08,VWS V14.01,2013-09-03 00:55:00,
2013-09-02 21:00:00,80.4,74.0,29.73,West,266,0.0,3.0,81,0.00,,---,0.08,VWS V14.01,2013-09-03 01:00:00,
2013-09-02 21:05:00,80.4,73.7,29.73,West,274,0.0,3.0,80,0.00,,---,0.08,VWS V14.01,2013-09-03 01:05:00,
2013-09-02 21:10:00,80.1,73.8,29.73,NW,316,0.0,3.0,81,0.00,,---,0.08,VWS V14.01,2013-09-03 01:10:00,
2013-09-02 21:15:00,79.8,74.2,29.73,NW,316,0.0,3.0,83,0.00,,---,0.08,VWS V14.01,2013-09-03 01:15:00,
2013-09-02 21:20:00,79.5,73.9,29.74,NW,316,0.0,3.0,83,0.00,,---,0.08,VWS V14.01,2013-09-03 01:20:00,
2013-09-02 21:25:00,79.6,73.6,29.74,NW,316,0.0,3.0,82,0.00,,---,0.08,VWS V14.01,2013-09-03 01:25:00,
2013-09-02 21:30:00,79.6,73.6,29.74,NW,316,0.0,3.0,82,0.00,,---,0.08,VWS V14.01,2013-09-03 01:30:00,
2013-09-02 21:35:00,79.4,74.2,29.74,NW,316,0.0,1.0,84,0.00,,---,0.08,VWS V14.01,2013-09-03 01:35:00,
2013-09-02 21:40:00,78.4,74.2,29.74,NW,316,0.0,1.0,87,0.00,,---,0.08,VWS V14.01,2013-09-03 01:40:00,
2013-09-02 21:45:00,77.7,74.2,29.74,NW,316,0.0,1.0,89,0.00,,---,0.08,VWS V14.01,2013-09-03 01:45:00,
2013-09-02 21:50:00,77.3,74.1,29.74,NW,316,0.0,1.0,90,0.00,,---,0.08,VWS V14.01,2013-09-03 01:50:00,
2013-09-02 21:55:00,77.0,73.8,29.74,NW,316,0.0,1.0,90,0.00,,---,0.08,VWS V14.01,2013-09-03 01:55:00,
2013-09-02 22:00:00,77.0,73.8,29.75,NW,316,0.0,1.0,90,0.00,,---,0.08,VWS V14.01,2013-09-03 02:00:00,
2013-09-02 22:05:00,76.9,73.8,29.74,NW,316,0.0,0.0,90,0.00,,---,0.08,VWS V14.01,2013-09-03 02:05:00,
2013-09-02 22:10:00,76.7,73.9,29.74,NW,316,0.0,0.0,91,0.00,,---,0.08,VWS V14.01,2013-09-03 02:10:00,
2013-09-02 22:15:00,76.8,73.7,29.75,NW,316,0.0,2.0,90,0.00,,---,0.08,VWS V14.01,2013-09-03 02:15:00,
2013-09-02 22:20:00,77.2,74.0,29.75,NW,316,0.0,2.0,90,0.00,,---,0.08,VWS V14.01,2013-09-03 02:20:00,
2013-09-02 22:25:00,77.8,74.0,29.75,NW,316,0.0,2.0,88,0.00,,---,0.08,VWS V14.01,2013-09-03 02:25:00,
2013-09-02 22:30:00,78.2,74.0,29.75,NW,316,0.0,2.0,87,0.00,,---,0.08,VWS V14.01,2013-09-03 02:30:00,
2013-09-02 22:35:00,78.3,73.8,29.75,NW,316,0.0,1.0,86,0.00,,---,0.08,VWS V14.01,2013-09-03 02:35:00,
2013-09-02 22:40:00,78.4,73.9,29.75,NW,316,1.0,1.0,86,0.00,,---,0.08,VWS V14.01,2013-09-03 02:40:00,
2013-09-02 22:45:00,78.3,73.8,29.75,NW,316,1.0,2.0,86,0.00,,---,0.08,VWS V14.01,2013-09-03 02:45:00,
2013-09-02 22:50:00,78.3,73.8,29.75,NW,316,0.0,2.0,86,0.00,,---,0.08,VWS V14.01,2013-09-03 02:50:00,
2013-09-02 22:55:00,78.3,73.8,29.75,WNW,296,1.0,2.0,86,0.00,,---,0.08,VWS V14.01,2013-09-03 02:55:00,
2013-09-02 23:00:00,78.3,73.8,29.75,West,271,0.0,2.0,86,0.00,,---,0.08,VWS V14.01,2013-09-03 03:00:00,
2013-09-02 23:05:00,78.2,73.7,29.75,West,271,0.0,1.0,86,0.00,,---,0.08,VWS V14.01,2013-09-03 03:05:00,
2013-09-02 23:10:00,78.2,73.7,29.75,West,262,0.0,2.0,86,0.00,,---,0.08,VWS V14.01,2013-09-03 03:10:00,
2013-09-02 23:15:00,78.0,73.8,29.75,West,262,0.0,2.0,87,0.00,,---,0.08,VWS V14.01,2013-09-03 03:15:00,
2013-09-02 23:20:00,77.7,73.5,29.75,West,262,0.0,2.0,87,0.00,,---,0.08,VWS V14.01,2013-09-03 03:20:00,
2013-09-02 23:25:00,77.6,73.4,29.75,West,262,0.0,2.0,87,0.00,,---,0.08,VWS V14.01,2013-09-03 03:25:00,
2013-09-02 23:30:00,77.7,73.5,29.75,West,262,0.0,2.0,87,0.00,,---,0.08,VWS V14.01,2013-09-03 03:30:00,
2013-09-02 23:35:00,77.7,73.5,29.76,West,262,0.0,1.0,87,0.00,,---,0.08,VWS V14.01,2013-09-03 03:35:00,
2013-09-02 23:40:00,77.5,73.3,29.75,West,262,0.0,1.0,87,0.00,,---,0.08,VWS V14.01,2013-09-03 03:40:00,
2013-09-02 23:45:00,77.4,73.6,29.76,West,262,0.0,1.0,88,0.00,,---,0.08,VWS V14.01,2013-09-03 03:45:00,
2013-09-02 23:50:00,77.3,73.5,29.75,West,262,0.0,1.0,88,0.00,,---,0.08,VWS V14.01,2013-09-03 03:50:00,
2013-09-02 23:55:00,76.7,73.2,29.75,West,262,0.0,1.0,89,0.00,,---,0.08,VWS V14.01,2013-09-03 03:55:00,